Sylvania, GA

5:29 PM EDT on August 18, 2017 (GMT -0400)
Plantation

Weather History for KJYL - April, 2014

Change the Weather History Date:

Wednesday, April 23, 2014

  Actual Average (KSAV) Record (KSAV)
Temperature  
Mean Temperature 72 °F -  
Max Temperature 85 °F 78 °F 92 °F (1980)
Min Temperature 59 °F 56 °F 38 °F (1993)
Cooling Degree Days 7    
Growing Degree Days 22 (Base 50)    
Moisture  
Dew Point 54 °F    
Average Humidity 63    
Maximum Humidity 92    
Minimum Humidity 18    
Precipitation  
Precipitation 0.00 in - - ()
Sea Level Pressure  
Sea Level Pressure 29.86 in    
Wind  
Wind Speed 4 mph (WNW)    
Max Wind Speed 14 mph    
Max Gust Speed 22 mph    
Visibility 8 miles    
Events      
Averages and records for this station are not official NWS values.
T = Trace of Precipitation, MM = Missing Value Source: NWS Daily Summary

Daily Weather History Graph

Daily Weather History Graph

Search for Another Location

Airport or City:

Trip Planner

Search our weather history database for the weather conditions in past years. The results will help you decide how hot, cold, wet, or windy it might be!

Date:

Astronomy

Apr. 23, 2014 Rise Set
Actual Time 6:47 AM EDT 8:02 PM EDT
Civil Twilight 6:22 AM EDT 8:27 PM EDT
Nautical Twilight 5:51 AM EDT 8:58 PM EDT
Astronomical Twilight 5:19 AM EDT 9:30 PM EDT
Moon 2:58 AM EDT (4/23) 2:28 PM EDT (4/23)
Length of Visible Light 14h 05m
Length of Day
13h 14m
Waning Crescent, 35% of the Moon is Illuminated
Apr 23
Waning Crescent
Apr 29
New
May 6
First Quarter
May 14
Full
May 21
Last Quarter

Hourly Weather History & Observations

Time (EDT) Temp. Dew Point Humidity Pressure Visibility Wind Dir Wind Speed Gust Speed Precip Events Conditions
12:15 AM 65.3 °F 62.6 °F 91% 29.84 in 4.0 mi West 3.5 mph - N/A   Clear
12:35 AM 64.9 °F 62.2 °F 91% 29.84 in 4.0 mi Calm Calm - N/A   Clear
12:55 AM 64.8 °F 61.9 °F 90% 29.84 in 4.0 mi West 3.5 mph - N/A   Clear
1:15 AM 64.6 °F 61.9 °F 91% 29.83 in 4.0 mi West 4.6 mph - N/A   Clear
1:35 AM 64.6 °F 61.7 °F 90% 29.83 in 5.0 mi WNW 5.8 mph - N/A   Clear
1:55 AM 64.4 °F 61.7 °F 91% 29.83 in 5.0 mi West 5.8 mph - N/A   Clear
2:15 AM 64.4 °F 61.3 °F 90% 29.83 in 5.0 mi WNW 4.6 mph - N/A   Scattered Clouds
2:35 AM 64.0 °F 61.2 °F 90% 29.82 in 5.0 mi WNW 4.6 mph - N/A   Clear
2:55 AM 63.9 °F 61.0 °F 90% 29.82 in 5.0 mi WNW 4.6 mph - N/A   Clear
3:15 AM 63.7 °F 61.0 °F 91% 29.81 in 5.0 mi West 4.6 mph - N/A   Clear
3:35 AM 63.5 °F 60.8 °F 91% 29.81 in 5.0 mi Calm Calm - N/A   Clear
3:55 AM 63.5 °F 60.8 °F 91% 29.81 in 5.0 mi West 3.5 mph - N/A   Clear
4:15 AM 63.1 °F 60.4 °F 91% 29.81 in 5.0 mi WNW 3.5 mph - N/A   Clear
4:35 AM 63.0 °F 60.3 °F 91% 29.82 in 5.0 mi Calm Calm - N/A   Clear
4:55 AM 62.6 °F 59.9 °F 91% 29.82 in 5.0 mi Calm Calm - N/A   Clear
5:15 AM 62.1 °F 59.4 °F 91% 29.82 in 4.0 mi Calm Calm - N/A   Clear
5:35 AM 61.7 °F 59.0 °F 91% 29.82 in 3.0 mi Calm Calm - N/A   Clear
5:55 AM 62.1 °F 59.5 °F 91% 29.83 in 4.0 mi Calm Calm - N/A   Clear
6:15 AM 61.2 °F 58.6 °F 91% 29.84 in 3.0 mi WNW 3.5 mph - N/A   Clear
6:35 AM 61.3 °F 59.0 °F 92% 29.84 in 3.0 mi Calm Calm - N/A   Clear
6:55 AM 60.4 °F 57.9 °F 91% 29.85 in 2.5 mi WNW 3.5 mph - N/A   Clear
7:15 AM 60.8 °F 58.3 °F 91% 29.86 in 1.0 mi Calm Calm - N/A   Mist
7:35 AM 61.7 °F 59.2 °F 91% 29.87 in 1.8 mi WNW 3.5 mph - N/A   Mist
7:55 AM 62.4 °F 60.1 °F 92% 29.87 in 2.5 mi WNW 3.5 mph - N/A   Clear
8:15 AM 63.1 °F 60.8 °F 92% 29.88 in 3.0 mi WNW 3.5 mph - N/A   Clear
8:35 AM 64.0 °F 61.7 °F 92% 29.88 in 5.0 mi WNW 6.9 mph - N/A   Scattered Clouds
8:55 AM 65.5 °F 62.6 °F 90% 29.89 in 7.0 mi WNW 6.9 mph - N/A   Clear
9:15 AM 66.7 °F 62.4 °F 86% 29.89 in 7.0 mi WNW 8.1 mph - N/A   Clear
9:35 AM 68.0 °F 62.4 °F 82% 29.90 in 10.0 mi NW 10.4 mph - N/A   Clear
9:55 AM 69.8 °F 62.8 °F 78% 29.90 in 10.0 mi NW 6.9 mph - N/A   Clear
10:15 AM 70.9 °F 62.8 °F 75% 29.91 in 10.0 mi WNW 4.6 mph - N/A   Clear
10:35 AM 72.5 °F 61.7 °F 69% 29.91 in 10.0 mi NNW 6.9 mph - N/A   Clear
10:55 AM 73.8 °F 60.3 °F 63% 29.92 in 10.0 mi WNW 5.8 mph - N/A   Clear
11:15 AM 74.7 °F 57.9 °F 56% 29.92 in 10.0 mi NNW 5.8 mph - N/A   Clear
11:35 AM 76.3 °F 57.4 °F 52% 29.91 in 10.0 mi WNW 6.9 mph - N/A   Clear
11:55 AM 76.8 °F 55.4 °F 47% 29.91 in 10.0 mi WNW 4.6 mph - N/A   Clear
12:15 PM 77.9 °F 55.4 °F 46% 29.90 in 10.0 mi West 4.6 mph - N/A   Clear
12:35 PM 78.6 °F 54.5 °F 43% 29.89 in 10.0 mi NW 6.9 mph - N/A   Clear
12:55 PM 79.2 °F 50.9 °F 37% 29.89 in 10.0 mi WNW 9.2 mph - N/A   Clear
1:15 PM 80.8 °F 50.7 °F 35% 29.89 in 10.0 mi NW 9.2 mph - N/A   Clear
1:35 PM 81.3 °F 48.7 °F 32% 29.88 in 10.0 mi WNW 11.5 mph 16.1 mph N/A   Clear
1:55 PM 81.5 °F 48.0 °F 31% 29.88 in 10.0 mi WNW 9.2 mph - N/A   Clear
2:15 PM 82.2 °F 45.7 °F 28% 29.87 in 10.0 mi NW 10.4 mph 20.7 mph N/A   Clear
2:35 PM 82.9 °F 44.1 °F 25% 29.86 in 10.0 mi WNW 13.8 mph - N/A   Clear
2:55 PM 83.7 °F 41.5 °F 23% 29.86 in 10.0 mi NW 11.5 mph 16.1 mph N/A   Clear
3:15 PM 84.2 °F 42.4 °F 23% 29.85 in 10.0 mi WNW 10.4 mph 19.6 mph N/A   Clear
3:35 PM 84.6 °F 40.8 °F 21% 29.85 in 10.0 mi WNW 11.5 mph 21.9 mph N/A   Clear
3:55 PM 84.6 °F 37.4 °F 19% 29.84 in 10.0 mi WNW 10.4 mph 16.1 mph N/A   Clear
4:15 PM 85.1 °F 40.3 °F 20% 29.84 in 10.0 mi NW 12.7 mph 20.7 mph N/A   Clear
4:35 PM 85.1 °F 40.5 °F 21% 29.83 in 10.0 mi NW 11.5 mph - N/A   Clear
4:55 PM 84.9 °F 37.8 °F 19% 29.83 in 10.0 mi NNW 9.2 mph - N/A   Clear
5:15 PM 84.7 °F 37.4 °F 19% 29.83 in 10.0 mi WNW 8.1 mph - N/A   Clear
5:35 PM 84.9 °F 38.1 °F 19% 29.83 in 10.0 mi NW 9.2 mph - N/A   Clear
5:55 PM 84.7 °F 36.0 °F 18% 29.83 in 10.0 mi WNW 4.6 mph - N/A   Clear
6:15 PM 84.4 °F 38.7 °F 20% 29.84 in 10.0 mi NW 8.1 mph - N/A   Clear
6:35 PM 83.8 °F 38.5 °F 20% 29.84 in 10.0 mi WNW 9.2 mph - N/A   Clear
6:55 PM 83.1 °F 39.0 °F 21% 29.84 in 10.0 mi WNW 6.9 mph - N/A   Clear
7:15 PM 81.3 °F 41.9 °F 25% 29.85 in 10.0 mi West 3.5 mph - N/A   Clear
7:35 PM 78.3 °F 44.6 °F 30% 29.85 in 10.0 mi Calm Calm - N/A   Clear
7:55 PM 74.3 °F 50.5 °F 43% 29.85 in 10.0 mi Calm Calm - N/A   Clear
8:15 PM 70.7 °F 50.5 °F 49% 29.86 in 10.0 mi Calm Calm - N/A   Clear
8:35 PM 68.9 °F 53.8 °F 58% 29.87 in 10.0 mi Calm Calm - N/A   Clear
8:55 PM 66.9 °F 52.5 °F 60% 29.88 in 10.0 mi Calm Calm - N/A   Clear
9:15 PM 65.8 °F 52.3 °F 62% 29.89 in 10.0 mi Calm Calm - N/A   Clear
9:35 PM 64.6 °F 54.0 °F 68% 29.90 in 10.0 mi Calm Calm - N/A   Clear
9:55 PM 62.8 °F 53.8 °F 72% 29.90 in 10.0 mi Calm Calm - N/A   Clear
10:15 PM 62.2 °F 55.4 °F 78% 29.92 in 10.0 mi NNE 3.5 mph - N/A   Clear
10:55 PM 61.3 °F 52.7 °F 73% 29.92 in 10.0 mi Calm Calm - N/A   Clear
11:15 PM 59.9 °F 54.0 °F 81% 29.92 in 10.0 mi Calm Calm - N/A   Clear
11:35 PM 59.2 °F 54.7 °F 85% 29.93 in 10.0 mi Calm Calm - N/A   Clear
11:55 PM 59.5 °F 53.8 °F 81% 29.93 in 10.0 mi Calm Calm - N/A   Clear